FW0194 Weather Reports


time (UTC)temp
F
wind
direction
speed
knots
gust
knots
rain 1hr
in
rain 24hr
in
rain mn
in
humidity
%
barometer
mb
20260506124520 49 102 0.9 1.7 0.00 0.00 0.00 94 1017.1
20260506124251 48 102 0.0 1.7 0.00 0.00 0.00 94 1017.0
20260506123520 48 102 0.0 0.9 0.00 0.00 0.00 94 1017.0
20260506123019 49 102 0.0 0.9 0.00 0.00 0.00 94 1016.9
20260506122520 49 102 0.0 0.9 0.00 0.00 0.00 94 1017.0
20260506122020 49 102 0.0 0.9 0.00 0.00 0.00 94 1017.2
20260506121519 49 102 0.0 1.7 0.00 0.00 0.00 94 1017.2
20260506121020 49 102 0.0 1.7 0.00 0.00 0.00 94 1017.1
20260506120519 49 102 0.0 0.9 0.00 0.00 0.00 93 1017.1
20260506120020 49 102 0.0 0.9 0.00 0.00 0.00 93 1017.2
20260506115518 49 102 0.0 1.7 0.00 0.00 0.00 94 1017.3
20260506115018 49 102 0.0 3.5 0.00 0.00 0.00 94 1017.2
20260506114519 49 102 0.9 3.5 0.00 0.00 0.00 94 1017.3
20260506114019 49 80 0.0 0.9 0.00 0.00 0.00 93 1017.3
20260506113518 49 80 0.0 0.9 0.00 0.00 0.00 93 1017.3
20260506113019 49 80 0.0 0.9 0.00 0.00 0.00 93 1017.4
20260506112518 49 80 0.0 0.0 0.00 0.00 0.00 93 1017.3
20260506112017 49 80 0.0 2.6 0.00 0.00 0.00 93 1017.3
20260506111518 49 80 0.9 2.6 0.00 0.00 0.00 93 1017.3
20260506111017 50 80 0.0 1.7 0.00 0.00 0.00 93 1017.3
20260506110516 50 80 0.0 1.7 0.00 0.00 0.00 93 1017.3
20260506110017 50 80 0.0 0.9 0.00 0.00 0.00 93 1017.2
20260506105518 50 80 0.0 0.9 0.00 0.00 0.00 94 1017.2
20260506105017 50 80 0.0 0.0 0.00 0.00 0.00 94 1017.3
20260506104517 50 80 0.0 0.0 0.00 0.00 0.00 94 1017.2
20260506104017 50 80 0.0 0.0 0.00 0.00 0.00 94 1017.2
20260506103515 50 80 0.0 0.0 0.00 0.00 0.00 93 1017.2
20260506103016 50 80 0.0 0.0 0.00 0.00 0.00 93 1017.3
20260506102516 50 80 0.0 0.0 0.00 0.00 0.00 93 1017.2
20260506102017 50 80 0.0 0.9 0.00 0.00 0.00 93 1017.2
20260506101755 51 80 0.0 0.9 0.00 0.00 0.00 93 1017.2
20260506101017 51 80 0.0 0.9 0.00 0.00 0.00 93 1017.1
20260506100517 51 80 0.0 1.7 0.00 0.00 0.00 93 1017.1
20260506100255 51 80 0.0 2.6 0.00 0.00 0.00 93 1017.1
20260506095753 51 80 0.9 2.6 0.00 0.00 0.00 93 1017.1
20260506095016 51 65 0.0 1.7 0.00 0.00 0.00 93 1017.1
20260506094515 51 63 0.0 1.7 0.00 0.00 0.00 93 1017.1
20260506094016 51 63 0.0 1.7 0.00 0.00 0.00 93 1017.1
20260506093515 51 63 0.9 2.6 0.00 0.00 0.00 93 1017.1
20260506093016 51 63 0.0 2.6 0.00 0.00 0.00 93 1017.1
20260506092517 51 58 0.9 1.7 0.00 0.00 0.00 93 1017.2
20260506092014 51 58 0.0 1.7 0.00 0.00 0.00 93 1017.2
20260506091514 51 58 0.0 1.7 0.00 0.00 0.00 93 1017.1
20260506091255 51 55 0.9 1.7 0.00 0.00 0.00 93 1017.2
20260506090514 51 38 0.0 0.9 0.00 0.00 0.00 92 1017.4
20260506090014 52 38 0.0 0.9 0.00 0.00 0.00 92 1017.4
20260506085515 52 38 0.0 3.5 0.00 0.00 0.00 92 1017.4
20260506085015 52 37 0.9 3.5 0.00 0.00 0.00 93 1017.3
20260506084514 52 34 0.0 1.7 0.00 0.00 0.00 93 1017.4
20260506084015 52 34 0.0 1.7 0.00 0.00 0.00 93 1017.5
20260506083544 52 34 0.0 0.0 0.00 0.00 0.00 92 1017.5
20260506083538 52 34 0.0 0.9 0.00 0.00 0.00 93 1017.5
20260506082514 52 34 0.0 0.9 0.00 0.00 0.00 92 1017.5
20260506082015 52 34 0.0 2.6 0.00 0.00 0.00 92 1017.6
20260506081516 52 32 0.0 2.6 0.00 0.00 0.00 92 1017.5
20260506081015 53 31 0.0 0.9 0.00 0.00 0.00 92 1017.5
20260506080514 53 31 0.0 0.0 0.00 0.00 0.00 92 1017.5
20260506073513 53 31 0.0 0.9 0.00 0.00 0.00 92 1017.4
20260506073014 53 31 0.0 0.9 0.00 0.00 0.00 92 1017.4
20260506072514 54 31 0.0 2.6 0.00 0.00 0.00 92 1017.4
20260506072014 54 31 0.0 2.6 0.00 0.00 0.00 92 1017.3
20260506071750 54 8 0.0 1.7 0.00 0.00 0.00 91 1017.4
20260506071027 54 7 0.0 1.7 0.00 0.00 0.00 91 1017.2
20260506071021 54 8 0.0 1.7 0.00 0.00 0.00 91 1017.3
20260506062511 54 303 0.0 1.7 0.00 0.00 0.00 90 1017.0
20260506062013 54 302 0.0 1.7 0.00 0.00 0.00 90 1017.0
20260506061513 54 300 0.0 1.7 0.00 0.00 0.00 90 1017.0
20260506061013 54 299 0.9 3.5 0.00 0.00 0.00 90 1016.9
20260506060512 54 295 0.0 3.5 0.00 0.00 0.00 90 1016.9
20260506051009 55 285 1.7 3.5 0.00 0.00 0.00 89 1016.6
20260506050512 55 290 0.9 2.6 0.00 0.00 0.00 89 1016.5
20260506045011 55 34 0.9 4.3 0.00 0.00 0.00 89 1016.4
20260506044510 55 303 0.9 4.3 0.00 0.00 0.00 88 1016.3
20260506044011 55 316 0.9 2.6 0.00 0.00 0.00 88 1016.3
20260506043510 55 310 0.0 4.3 0.00 0.00 0.00 88 1016.3
20260506043010 55 320 1.7 4.3 0.00 0.00 0.00 88 1016.2
20260506042510 55 307 0.9 3.5 0.00 0.00 0.00 88 1016.2
20260506042011 55 293 1.7 4.3 0.00 0.00 0.00 87 1016.2
20260506041509 56 288 1.7 4.3 0.00 0.00 0.00 87 1016.1
20260506041009 56 298 1.7 3.5 0.00 0.00 0.00 87 1016.0
20260506040511 56 288 0.9 4.3 0.00 0.00 0.00 87 1016.0
20260506040008 56 358 1.7 4.3 0.00 0.00 0.00 86 1015.9
20260506035507 56 261 0.9 4.3 0.00 0.00 0.00 86 1015.8
20260506035008 56 305 1.7 3.5 0.00 0.00 0.00 86 1015.7
20260506034507 56 286 0.9 3.5 0.00 0.00 0.00 85 1015.6
20260506034007 56 293 1.7 5.2 0.00 0.00 0.00 85 1015.6
20260506033513 56 292 0.9 5.2 0.00 0.00 0.00 85 1015.5
20260506033014 56 290 1.7 6.1 0.00 0.00 0.00 85 1015.5
20260506032745 56 293 1.7 6.1 0.00 0.00 0.00 84 1015.4
20260506032001 57 282 1.7 5.2 0.00 0.00 0.00 84 1015.3
20260506031732 57 298 0.9 10.4 0.00 0.00 0.00 84 1015.2
20260506030952 57 299 3.5 10.4 0.00 0.00 0.00 83 1015.0
20260506030728 57 279 1.7 5.2 0.00 0.00 0.00 83 1015.0
20260506025950 57 285 1.7 8.7 0.00 0.00 0.00 83 1014.9
20260506025720 57 323 2.6 8.7 0.00 0.00 0.00 82 1014.8
20260506024943 58 289 3.5 7.8 0.00 0.00 0.00 81 1014.8
20260506024718 58 276 1.7 9.6 0.00 0.00 0.00 80 1014.6
20260506024004 58 306 0.9 7.8 0.00 0.00 0.00 79 1014.6
20260506023952 58 313 3.5 9.6 0.00 0.00 0.00 80 1014.6
20260506022937 59 309 1.7 5.2 0.00 0.00 0.00 78 1014.6
20260506022714 59 341 2.6 5.2 0.00 0.00 0.00 77 1014.5
20260506021938 60 309 2.6 5.2 0.00 0.00 0.00 76 1014.5
20260506021435 60 288 2.6 9.6 0.00 0.00 0.00 75 1014.6
20260506020935 60 309 1.7 9.6 0.00 0.00 0.00 73 1014.5
20260506020434 61 286 2.6 8.7 0.00 0.00 0.00 72 1014.5
20260506015938 61 290 4.3 9.6 0.00 0.00 0.00 71 1014.3
20260506015438 62 317 1.7 9.6 0.00 0.00 0.00 70 1014.3
20260506014933 62 292 2.6 6.1 0.00 0.00 0.00 69 1014.2
20260506014707 62 266 2.6 8.7 0.00 0.00 0.00 68 1014.2
20260506014222 63 340 3.5 8.7 0.00 0.00 0.00 67 1014.2
20260506014216 63 336 1.7 9.6 0.00 0.00 0.00 67 1014.2
20260506012928 63 1 0.9 9.6 0.00 0.00 0.00 67 1014.1
20260506012429 63 295 2.6 12.2 0.00 0.00 0.00 66 1014.2
20260506011923 63 292 2.6 12.2 0.00 0.00 0.00 68 1014.2
20260506011425 63 319 3.5 10.4 0.00 0.00 0.00 67 1014.1
20260506011213 64 321 4.3 9.6 0.00 0.00 0.00 65 1014.2
20260506010928 63 285 3.5 10.4 0.00 0.00 0.00 66 1014.1
20260506005920 64 286 3.5 10.4 0.00 0.00 0.00 66 1014.1
20260506005413 65 306 4.3 10.4 0.00 0.00 0.00 65 1014.2
20260506004912 65 307 1.7 8.7 0.00 0.00 0.00 66 1014.1
20260506004415 65 17 2.6 8.7 0.00 0.00 0.00 66 1014.2
20260506003910 66 32 5.2 8.7 0.00 0.00 0.00 65 1014.1
20260506003409 66 347 1.7 5.2 0.00 0.00 0.00 66 1014.1
20260506002906 66 0 1.7 10.4 0.00 0.00 0.00 67 1014.0
20260506002407 65 62 3.5 10.4 0.00 0.00 0.00 67 1014.0
20260506001920 66 329 0.9 6.1 0.00 0.00 0.00 68 1013.9
20260506001403 65 0 2.6 8.7 0.00 0.00 0.00 69 1013.9
20260506000903 65 283 5.2 8.7 0.00 0.00 0.00 69 1013.9
20260506000405 65 306 3.5 8.7 0.00 0.00 0.00 69 1013.9
20260505235903 65 296 2.6 8.7 0.00 0.00 0.00 73 1013.9
20260505235403 65 296 2.6 9.6 0.00 0.00 0.00 71 1013.9
20260505234903 65 259 3.5 9.6 0.00 0.00 0.00 73 1013.9
20260505234403 65 272 4.3 8.7 0.00 0.00 0.00 72 1013.9
20260505233902 65 274 2.6 7.8 0.00 0.00 0.00 73 1013.9
20260505233403 65 307 3.5 8.7 0.00 0.00 0.00 73 1014.0
20260505232904 65 286 3.5 10.4 0.00 0.00 0.00 74 1014.0
20260505232404 64 306 4.3 10.4 0.00 0.00 0.00 74 1014.0
20260505231904 64 271 5.2 10.4 0.00 0.00 0.00 73 1013.9
20260505231405 64 272 2.6 11.3 0.00 0.00 0.00 74 1013.9
20260505230903 64 292 5.2 11.3 0.00 0.00 0.00 73 1014.0
20260505230403 64 303 3.5 11.3 0.00 0.00 0.00 74 1014.0
20260505225903 64 285 4.3 11.3 0.00 0.00 0.00 73 1014.1
20260505225634 64 306 3.5 9.6 0.00 0.00 0.00 74 1014.1
20260505225134 64 137 3.5 13.0 0.00 0.00 0.00 74 1014.2
20260505224402 64 309 3.5 13.0 0.00 0.00 0.00 73 1014.2
20260505223901 64 309 4.3 9.6 0.00 0.00 0.00 74 1014.3
20260505223401 64 314 4.3 9.6 0.00 0.00 0.00 73 1014.4
20260505223131 64 279 3.5 10.4 0.00 0.00 0.00 73 1014.3
20260505222401 63 299 5.2 11.3 0.00 0.00 0.00 73 1014.4
20260505221900 63 283 6.1 13.9 0.00 0.00 0.00 73 1014.5
20260505221646 64 259 7.0 13.9 0.00 0.00 0.00 71 1014.4
20260505220901 64 296 3.5 9.6 0.00 0.00 0.00 72 1014.4
20260505220401 64 259 4.3 9.6 0.00 0.00 0.00 73 1014.4
20260505215900 64 285 3.5 9.6 0.00 0.00 0.00 72 1014.5
20260505215359 64 290 5.2 9.6 0.00 0.00 0.00 71 1014.6
20260505214903 64 283 4.3 9.6 0.00 0.00 0.00 69 1014.8
20260505214402 64 307 2.6 8.7 0.00 0.00 0.00 70 1014.7
20260505213901 64 283 2.6 8.7 0.00 0.00 0.00 72 1014.7
20260505213403 63 250 3.5 9.6 0.00 0.00 0.00 73 1014.9
20260505212901 62 228 4.3 9.6 0.00 0.00 0.00 74 1014.8
20260505212401 62 250 3.5 13.0 0.00 0.00 0.00 74 1014.8
20260505212132 62 292 5.2 13.0 0.00 0.00 0.00 73 1014.7
20260505211401 63 171 4.3 11.3 0.00 0.00 0.00 72 1014.8
20260505211133 62 310 4.3 10.4 0.00 0.00 0.00 73 1014.9
20260505210400 62 269 4.3 10.4 0.00 0.00 0.00 74 1014.8
20260505205901 62 302 5.2 9.6 0.00 0.00 0.00 73 1015.0
20260505205634 62 272 3.5 10.4 0.00 0.00 0.00 73 1014.9
20260505204900 62 302 6.1 10.4 0.00 0.00 0.00 72 1014.8
20260505204401 62 296 3.5 11.3 0.00 0.00 0.00 71 1014.9
20260505203859 63 312 5.2 11.3 0.00 0.00 0.00 70 1014.9
20260505203401 64 283 6.1 11.3 0.00 0.00 0.00 69 1015.0
20260505202900 64 324 3.5 12.2 0.00 0.00 0.00 71 1014.9
20260505202400 63 344 6.1 12.2 0.00 0.00 0.00 72 1014.8
20260505201901 62 296 2.6 12.2 0.00 0.00 0.00 73 1014.8
20260505201359 62 258 5.2 12.2 0.00 0.00 0.00 72 1015.0
20260505200900 62 269 6.1 11.3 0.00 0.00 0.00 73 1014.9
20260505200359 62 237 7.0 11.3 0.00 0.00 0.00 72 1014.9
20260505195900 62 266 2.6 15.6 0.00 0.00 0.00 73 1014.9
20260505195400 61 290 3.5 15.6 0.00 0.00 0.00 73 1014.9
20260505194859 61 258 5.2 12.2 0.00 0.00 0.00 72 1014.9
20260505194400 61 320 6.1 13.0 0.00 0.00 0.00 71 1014.9
20260505193859 61 173 3.5 13.0 0.00 0.00 0.00 73 1014.8
20260505193629 61 295 6.1 13.9 0.00 0.00 0.00 73 1014.9
20260505192859 62 298 7.0 13.9 0.00 0.00 0.00 72 1014.9
20260505192357 63 259 3.5 13.9 0.00 0.00 0.00 71 1014.9
20260505191857 64 257 5.2 13.9 0.00 0.00 0.00 69 1015.0
20260505191357 65 302 3.5 8.7 0.00 0.00 0.00 70 1015.0
20260505190858 64 251 2.6 8.7 0.00 0.00 0.00 72 1015.0
20260505190357 64 306 3.5 9.6 0.00 0.00 0.00 73 1015.1
20260505185858 63 286 5.2 9.6 0.00 0.00 0.00 73 1015.2
20260505185356 63 293 3.5 9.6 0.00 0.00 0.00 73 1015.0
20260505185127 63 244 3.5 9.6 0.00 0.00 0.00 73 1015.0
20260505184356 63 288 4.3 9.6 0.00 0.00 0.00 74 1014.9
20260505183856 63 231 3.5 10.4 0.00 0.00 0.00 73 1015.0
20260505183357 63 289 4.3 10.4 0.00 0.00 0.00 73 1015.0
20260505182856 63 276 2.6 10.4 0.00 0.00 0.00 74 1014.9
20260505182358 63 279 1.7 10.4 0.00 0.00 0.00 75 1015.0
20260505182130 63 221 3.5 10.4 0.00 0.00 0.00 74 1015.0
20260505181358 63 283 3.5 8.7 0.00 0.00 0.00 73 1014.9
20260505180858 63 303 2.6 9.6 0.00 0.00 0.00 74 1014.9
20260505180355 63 302 3.5 9.6 0.00 0.00 0.00 73 1014.9
20260505180125 63 286 2.6 7.8 0.00 0.00 0.00 74 1014.9
20260505175625 62 176 2.6 10.4 0.00 0.00 0.00 75 1015.0
20260505174855 62 274 2.6 10.4 0.00 0.00 0.00 76 1014.9
20260505174355 62 309 3.5 8.7 0.00 0.00 0.00 75 1014.8
20260505173855 62 292 3.5 8.7 0.00 0.00 0.00 74 1014.9
20260505173355 62 0 3.5 5.2 0.00 0.00 0.00 74 1014.8
20260505172854 62 289 1.7 7.8 0.00 0.00 0.00 74 1014.7
20260505172356 62 279 2.6 7.8 0.00 0.00 0.00 75 1014.7
20260505171855 62 244 1.7 6.1 0.00 0.00 0.00 74 1014.6
20260505171356 62 237 1.7 6.1 0.00 0.00 0.00 76 1014.6
20260505170854 62 254 1.7 5.2 0.00 0.00 0.00 76 1014.6
20260505170633 61 245 1.7 6.1 0.00 0.00 0.00 76 1014.7
20260505165855 61 247 2.6 6.1 0.00 0.00 0.00 75 1014.8
20260505165354 61 305 2.6 4.3 0.00 0.00 0.00 76 1014.7
20260505164854 60 235 0.9 4.3 0.00 0.00 0.00 76 1014.8
20260505164354 60 209 1.7 4.3 0.00 0.00 0.00 76 1014.8
20260505163855 60 272 1.7 4.3 0.00 0.00 0.00 75 1014.9
20260505163357 60 271 2.6 4.3 0.00 0.00 0.00 74 1014.8
20260505162854 61 290 1.7 4.3 0.00 0.00 0.00 75 1014.7
20260505162353 60 216 1.7 3.5 0.00 0.00 0.00 77 1014.6
20260505161854 60 286 0.9 4.3 0.00 0.00 0.00 77 1014.6
20260505161353 59 240 1.7 5.2 0.00 0.00 0.00 76 1014.5
20260505160854 59 286 1.7 6.1 0.00 0.00 0.00 77 1014.5
20260505160353 59 302 3.5 6.1 0.00 0.00 0.00 78 1014.6
20260505153354 58 292 1.7 4.3 0.00 0.00 0.00 82 1014.5
20260505152852 57 300 0.9 4.3 0.00 0.00 0.00 83 1014.4
20260505152352 56 300 1.7 4.3 0.00 0.00 0.00 84 1014.4
20260505151852 56 312 2.6 3.5 0.00 0.00 0.00 85 1014.4
20260505151351 56 290 2.6 3.5 0.00 0.00 0.00 86 1014.4
20260505150853 56 293 0.9 2.6 0.00 0.00 0.00 87 1014.4
20260505150352 56 296 1.7 3.5 0.00 0.00 0.00 88 1014.4
20260505140626 52 295 0.0 0.9 0.00 0.00 0.00 93 1014.2
20260505130124 52 295 0.0 0.0 0.00 0.00 0.00 91 1013.8
20260505124849 52 295 0.0 0.0 0.00 0.00 0.00 92 1013.9